Location: Piotrkow Trybunalski
(51.4000°N, 19.6830°E)
Time: 01:57:20
(UTC+01:00)

A-11 Canister half - Pass Details

Date: 16 December 2023
Orbit: 1512 x 1687 km, 47.2° (Epoch: 23 February)

Event Time Altitude Azimuth Distance (km) Brightness Sun altitude
Rises 20:19:08 0° 214° (SW) 4,656 11.7 -43.0°
Reaches altitude 10° 20:22:25 10° 207° (SSW) 3,690 11.0 -43.5°
Enters shadow 20:23:10 13° 204° (SSW) 3,479 10.9 -43.6°
